Wind_Speed
45 47 48 46 45 47 49 48 47 48 47 47 47 46 46 46 46 47 47 48 49 49 49 48 49 49 49 49 49 48 47 46 46 47 47 48 49 50 50 50 50 50 50 50 49 49 49 49 48 48 49 49 49 49 48 47 46 46 46 46 46 46 45 45 45 46 46 45 45 46 46 47 47 47 47 47 47 47 48 48 49 51 56 61 63
49 48 49 48 46 47 49 48 49 51 51 51 51 50 51 51 52 52 52 53 53 52 52 51 51 52 52 53 52 51 50 49 49 48 49 50 52 52 52 51 50 49 49 49 49 50 50 50 51 51 51 51 51 51 52 51 51 50 50 51 51 51 50 50 49 50 49 49 48 49 49 49 49 50 50 50 49 50 50 50 50 50 51 54 59
61 58 55 53 52 53 54 54 55 54 54 53 53 53 54 55 55 55 55 54 54 53 53 53 54 55 56 56 56 55 54 53 52 52 53 55 56 57 56 55 52 51 50 50 50 51 52 53 53 53 53 53 53 54 54 54 55 55 55 55 55 55 54 54 53 53 52 52 51 51 51 51 52 52 52 52 52 52 52 52 52 52 52 52 53
66 63 59 57 58 60 61 61 58 55 55 56 56 56 57 57 58 58 57 57 56 56 56 56 57 58 58 59 59 58 56 56 56 57 59 59 59 59 58 57 55 54 53 53 53 53 54 54 53 53 52 52 53 54 55 55 56 56 56 57 57 57 56 56 55 54 54 53 52 52 51 51 52 53 53 54 54 55 55 55 54 53 53 53 53
65 64 61 59 59 61 64 64 61 59 59 60 60 60 60 59 59 58 57 57 57 58 59 60 60 60 60 60 60 59 58 57 57 60 62 61 61 61 60 59 60 59 57 55 53 53 52 51 50 49 48 49 51 52 53 54 54 55 56 57 57 56 55 55 54 54 53 52 52 51 51 51 52 52 52 53 55 56 56 57 56 55 54 54 55
63 62 61 60 58 58 62 64 63 62 63 63 62 62 64 64 62 59 57 58 59 60 60 60 61 62 63 62 61 60 60 59 60 62 63 63 66 67 66 64 63 61 58 55 52 51 50 48 46 46 46 46 47 48 49 51 52 52 53 54 54 54 53 53 53 52 52 52 51 50 50 51 51 51 51 53 54 55 57 58 58 58 57 57 57
64 63 61 61 58 54 54 58 60 61 61 60 57 56 58 59 59 60 59 59 60 60 61 62 64 65 65 65 64 64 64 64 65 67 68 69 71 71 68 65 61 56 52 49 47 47 47 46 45 45 46 46 45 45 46 48 49 50 50 50 50 51 51 51 51 51 51 51 51 49 48 50 50 50 51 53 54 55 57 59 60 60 60 60 59
66 64 64 63 62 58 53 48 49 53 57 58 57 56 56 55 54 56 59 60 61 63 64 65 66 66 68 68 68 68 68 68 69 70 71 71 71 69 65 59 51 44 42 42 43 44 44 43 42 42 44 46 44 44 45 45 46 46 47 48 48 48 48 48 49 50 50 51 50 48 48 49 51 51 52 53 54 55 56 59 60 61 61 61 61
68 67 67 66 65 65 63 58 54 54 54 55 56 58 61 61 58 56 56 55 54 54 53 50 51 57 62 64 65 66 64 63 64 64 64 63 62 61 58 50 43 40 40 42 44 46 47 47 47 47 49 50 47 47 48 47 47 47 47 48 48 48 47 48 49 50 50 50 50 49 49 50 51 52 53 53 53 54 56 58 60 61 62 63 64
69 70 70 70 67 66 67 68 69 66 63 62 63 64 67 67 63 60 58 54 50 46 42 42 48 56 60 61 62 61 58 57 60 61 61 60 57 54 52 48 43 40 43 49 54 57 58 58 58 58 58 56 55 54 54 53 52 52 52 52 52 52 51 50 50 50 50 50 50 49 49 51 52 54 55 54 54 55 56 57 59 61 63 65 66
67 69 71 71 71 71 71 71 73 74 73 73 72 72 73 72 71 71 72 70 67 61 57 58 62 66 67 64 60 57 56 59 63 63 63 62 58 56 55 55 54 53 58 65 69 69 68 66 65 64 63 61 61 59 58 58 57 57 56 56 56 56 55 53 52 51 51 51 51 50 50 51 53 55 56 56 55 56 56 57 59 60 62 64 66
67 68 70 70 72 74 76 77 78 78 78 76 76 76 77 76 77 78 77 77 77 76 73 72 70 67 64 58 53 54 58 62 63 63 64 66 67 68 69 70 71 73 76 77 76 73 71 69 67 66 64 64 63 62 62 61 61 60 59 58 58 58 57 56 55 54 53 53 52 52 52 53 54 54 55 57 57 57 58 59 60 60 61 63 64
67 68 70 71 72 73 75 77 79 80 80 79 77 76 76 76 77 78 77 76 75 72 68 64 61 57 53 52 55 61 66 68 69 71 74 78 79 80 81 82 84 85 84 82 78 74 72 69 68 66 66 65 65 65 65 64 64 63 63 62 61 61 60 60 59 57 57 56 55 54 53 54 55 55 56 57 57 57 58 59 60 61 61 62 64
67 68 69 70 70 71 72 74 76 79 81 82 81 80 79 78 78 78 77 76 74 71 68 66 66 65 65 69 74 79 81 81 83 85 86 88 88 89 91 91 91 90 88 84 79 75 72 70 69 68 68 68 68 68 68 68 67 66 65 65 65 65 65 64 64 63 61 60 59 57 57 57 56 56 57 58 57 57 58 59 60 61 61 62 63
69 70 71 72 71 71 72 73 75 77 79 82 83 84 84 83 82 82 81 81 81 81 82 83 84 84 85 88 90 91 91 92 92 92 93 93 94 95 96 95 94 91 88 83 79 75 72 71 70 70 70 70 70 71 71 70 70 68 67 66 67 67 67 67 67 67 66 65 63 63 62 62 61 60 61 61 60 59 59 59 61 61 61 62 63
70 71 73 74 75 75 76 77 77 78 79 80 81 83 84 85 85 86 87 87 87 87 88 89 89 90 91 92 93 94 94 94 94 95 95 96 97 97 97 96 93 89 84 80 77 74 72 71 71 71 71 71 72 72 73 73 72 71 70 69 69 69 69 69 69 70 70 69 68 68 67 66 65 64 64 64 63 62 61 61 62 62 62 62 62
72 73 74 76 77 78 79 80 81 81 82 82 82 83 84 85 86 88 89 90 91 92 93 93 94 94 95 95 95 96 96 96 97 97 98 98 98 97 95 91 86 81 78 75 73 71 70 70 70 70 71 72 72 72 73 73 73 72 71 71 71 71 71 72 72 71 71 72 71 71 70 70 69 68 68 67 66 65 63 63 63 63 62 61 61
69 70 72 75 77 79 81 82 83 84 85 85 85 86 87 87 88 88 89 90 91 92 93 94 95 96 96 97 97 98 98 99 98 98 97 96 94 91 87 82 78 76 74 71 69 68 67 67 67 67 68 68 69 69 70 71 71 71 71 71 70 70 71 73 72 71 71 72 72 71 71 70 70 70 69 68 67 66 64 62 62 61 60 59 59
69 68 69 71 73 75 78 79 81 83 85 86 86 88 89 89 90 91 91 92 93 93 94 94 95 96 97 97 97 96 96 96 94 93 90 87 84 82 79 76 74 73 72 70 68 67 66 65 65 65 64 64 64 65 65 66 66 66 66 66 65 65 67 69 69 68 68 68 68 68 68 67 67 67 66 65 64 63 61 60 59 58 57 57 57
71 71 70 70 71 72 74 75 75 76 78 80 81 82 84 85 86 86 87 88 89 90 90 91 91 91 92 92 90 89 88 87 86 83 81 80 78 77 76 75 73 72 72 70 68 67 66 66 66 65 64 63 62 61 61 61 61 62 62 62 61 60 60 62 63 63 63 63 62 62 62 61 61 60 60 59 59 58 58 57 57 57 57 57 57
74 74 73 73 72 72 73 74 74 74 75 76 76 77 79 80 80 81 81 82 83 83 84 84 84 84 85 84 84 83 82 81 80 78 77 77 76 76 76 75 73 73 72 71 71 68 66 67 69 67 65 64 62 61 61 60 60 61 60 60 59 58 57 58 59 59 59 59 59 59 58 57 56 56 55 55 55 56 57 57 57 58 58 58 59
76 76 76 76 76 76 76 77 77 78 78 77 76 77 79 80 80 80 81 82 82 82 82 83 83 83 83 83 82 81 80 80 79 78 77 76 76 76 76 76 75 75 74 73 73 70 66 69 72 70 67 66 64 63 62 62 62 61 61 61 60 59 58 58 58 59 59 58 58 58 57 57 56 56 56 56 56 56 57 58 59 60 61 61 61
77 78 79 79 80 80 80 81 81 82 82 81 80 80 80 81 82 82 83 83 83 83 84 84 84 84 84 85 84 83 82 81 81 80 79 78 77 77 78 77 78 78 76 75 75 72 70 71 72 72 71 69 67 66 65 64 64 63 63 63 62 61 61 60 60 60 60 60 59 59 59 58 58 58 58 58 59 59 59 60 61 63 63 63 64
79 80 81 82 83 83 84 84 84 84 84 84 84 83 83 84 84 84 85 84 84 84 84 85 85 85 85 85 86 85 84 83 82 82 81 79 78 78 79 79 80 80 79 79 77 75 73 73 73 73 73 72 71 70 69 68 67 67 66 65 65 64 64 64 63 63 63 62 62 62 62 61 61 62 62 62 62 62 62 62 63 64 65 65 65
83 83 84 85 85 86 86 86 86 86 86 86 86 86 85 85 85 86 86 86 86 86 87 86 86 87 87 86 87 87 86 85 84 82 81 80 79 78 79 79 80 80 80 80 80 78 76 75 75 74 74 74 74 74 73 72 71 70 70 69 68 68 68 67 67 67 66 66 66 66 65 65 65 65 65 65 65 64 64 64 65 65 65 65 66
86 86 87 87 88 88 89 89 89 88 88 88 88 88 87 87 87 87 87 87 88 89 90 90 89 89 90 90 89 90 90 89 88 85 83 82 81 80 79 78 77 78 78 79 80 79 78 76 75 75 75 75 75 75 75 75 74 74 73 72 72 71 71 70 70 69 69 69 69 68 68 67 68 68 67 67 67 66 65 65 66 66 66 66 67
89 89 89 90 90 91 91 91 91 91 91 90 90 90 90 89 89 89 89 88 89 91 94 94 92 92 93 92 92 93 94 93 91 89 88 86 85 84 82 79 77 76 77 78 78 79 78 77 76 76 75 76 76 76 76 76 76 76 75 75 75 74 74 73 73 72 72 71 71 70 70 69 69 69 69 69 68 67 67 67 67 67 67 67 67
91 91 91 92 92 93 93 93 93 93 93 92 92 92 92 91 91 91 91 90 90 92 96 97 95 94 94 93 93 95 97 95 92 90 90 90 88 86 84 81 80 78 78 79 79 78 78 77 76 76 76 76 76 76 76 77 78 77 77 77 76 76 76 75 75 74 74 74 73 72 72 71 71 70 70 69 69 68 68 68 68 67 67 67 67
92 91 91 92 92 93 93 93 93 93 93 93 93 93 93 93 92 92 94 93 91 92 96 97 97 94 94 95 95 95 97 96 93 90 91 91 89 87 85 83 83 82 81 82 80 79 77 76 75 75 75 76 77 77 76 77 77 77 77 77 77 76 76 76 76 75 75 75 74 73 73 72 72 71 70 70 69 69 68 68 67 66 66 66 66
92 91 91 92 92 93 93 92 92 92 92 92 92 92 93 93 92 92 93 93 92 92 94 95 95 93 93 97 98 95 94 95 94 91 90 90 89 88 86 85 84 83 82 82 81 80 78 75 74 73 74 75 76 76 76 76 76 76 76 77 77 76 76 75 75 75 75 75 74 74 73 72 72 71 70 70 69 69 67 66 65 64 64 64 63
91 90 90 91 91 92 92 91 91 91 91 91 91 91 92 92 91 90 90 90 90 91 92 93 93 91 92 95 97 95 93 93 93 91 89 88 87 86 85 84 83 83 83 83 82 80 78 75 73 73 73 74 75 75 76 75 75 74 74 75 76 76 75 74 74 74 74 74 74 73 73 72 71 70 70 69 68 67 65 64 63 63 63 61 59
88 89 89 89 90 90 90 90 91 91 90 89 89 89 90 91 89 87 87 87 87 88 89 91 90 90 90 91 93 93 93 93 93 92 90 87 86 84 83 82 82 83 84 85 83 80 78 76 75 74 74 74 74 74 75 74 74 73 73 73 74 74 74 73 73 73 73 73 73 72 72 71 70 69 68 67 65 64 62 60 60 60 59 56 53
84 84 85 86 87 87 87 88 88 88 86 85 84 84 85 87 86 84 83 84 85 85 85 87 88 88 88 88 88 89 90 91 91 90 89 87 85 84 82 80 81 82 84 84 83 80 78 77 76 76 76 76 74 74 73 72 71 71 71 71 72 72 72 72 72 72 71 71 71 70 69 69 68 66 65 63 62 60 58 57 57 56 53 51 49
79 78 78 79 80 81 82 83 83 82 80 78 77 76 77 78 80 78 76 76 79 81 81 81 82 83 83 84 85 85 86 86 85 84 83 83 81 79 78 78 79 80 81 81 79 77 76 75 75 75 75 75 74 72 71 70 69 69 69 69 69 69 69 69 69 69 69 68 67 67 66 65 64 62 60 59 57 55 54 53 52 50 48 47 46
75 74 74 74 75 76 78 79 78 77 74 72 71 70 70 71 72 71 69 67 69 73 73 73 73 75 76 78 80 80 80 80 78 76 76 76 74 72 72 73 74 75 76 75 75 73 72 72 73 72 72 71 71 70 69 68 67 67 67 66 65 65 65 66 65 65 65 64 63 63 62 61 59 58 56 55 53 51 51 50 48 46 45 45 44
72 71 71 71 71 72 74 74 73 71 69 69 68 68 68 67 66 66 64 62 62 65 67 67 67 69 70 71 73 75 74 73 71 70 71 70 68 66 66 67 68 68 69 68 68 67 67 67 68 68 67 67 66 65 65 65 65 64 63 63 62 62 62 62 61 61 60 60 59 58 57 56 54 53 52 50 49 48 47 46 44 43 43 42 40
68 69 68 68 69 70 70 70 68 66 65 66 67 67 65 64 63 63 62 62 61 61 62 64 65 65 65 66 68 69 69 68 67 67 67 66 64 62 62 63 63 62 61 60 60 60 60 60 61 62 61 60 60 60 60 59 59 58 58 58 59 59 58 58 57 56 56 55 55 54 52 51 50 49 48 46 45 45 45 43 41 40 40 39 37
65 65 65 65 65 67 67 66 64 63 64 64 65 64 62 61 62 62 61 61 60 58 59 60 60 61 62 62 63 64 65 66 65 64 62 62 61 60 60 60 59 57 55 54 53 54 54 55 55 55 54 53 53 53 53 52 52 52 53 54 54 54 54 53 52 52 51 51 50 49 48 47 46 45 44 43 43 43 42 40 38 38 37 36 35
60 60 60 60 61 62 63 62 61 61 62 62 61 61 60 59 59 60 60 59 59 57 57 57 57 58 58 58 60 63 64 63 61 60 59 59 59 58 58 57 55 52 51 50 49 49 50 50 50 49 48 48 47 47 46 46 47 47 48 48 49 49 49 48 48 47 47 46 46 45 44 43 43 42 41 41 40 40 39 38 36 36 34 33 33
54 55 55 56 56 57 58 59 58 58 58 58 58 58 57 57 57 57 57 57 57 57 56 56 56 56 55 54 58 62 62 58 56 56 57 57 56 55 55 54 52 50 48 47 47 47 48 47 46 45 44 43 42 42 42 42 43 43 44 44 44 44 44 44 43 43 43 42 42 41 41 40 40 39 39 38 38 37 36 35 35 34 32 31 32
50 50 51 52 52 53 54 54 55 54 54 54 54 54 54 54 54 54 54 54 55 55 55 55 54 54 53 53 56 59 58 54 52 52 53 53 52 52 51 51 50 48 46 45 45 46 45 44 43 42 40 39 39 39 39 39 39 40 40 40 40 40 40 40 40 40 40 39 39 39 38 38 37 36 36 36 35 34 34 33 33 32 31 30 30
46 47 47 48 48 49 50 50 51 51 51 51 51 51 50 51 51 51 51 52 52 53 53 53 52 52 52 51 52 53 52 51 49 49 49 50 49 48 48 48 46 45 44 44 44 44 44 43 42 40 38 38 38 37 37 37 37 37 37 37 37 37 38 38 38 37 37 37 37 37 36 35 34 34 33 33 33 33 32 32 31 31 30 30 30
43 43 43 44 44 45 46 46 47 47 47 47 47 46 46 47 47 48 48 48 49 50 50 50 50 50 49 48 48 48 48 47 46 45 45 45 45 44 45 44 43 43 42 43 43 43 42 42 40 38 38 38 37 36 35 35 35 35 35 35 35 35 36 36 35 35 35 35 35 35 34 33 32 32 31 31 31 31 31 31 30 30 29 29 29
39 39 39 40 40 41 41 42 42 43 43 43 43 43 43 43 43 43 44 44 45 45 46 46 46 46 45 45 45 45 45 44 43 42 42 42 42 42 41 41 40 41 41 42 42 42 41 40 39 38 38 37 35 35 34 34 33 33 33 33 33 34 34 34 33 33 33 33 33 33 32 31 31 30 30 30 30 30 30 30 29 29 28 28 27
36 36 36 37 37 38 38 38 39 39 39 39 39 40 40 39 39 40 40 40 40 41 41 41 41 41 41 41 41 41 41 41 41 40 40 40 39 39 39 39 40 41 42 41 41 40 40 39 39 38 37 36 35 34 33 33 32 32 32 32 32 32 32 32 32 32 32 32 32 32 31 31 30 29 29 29 29 29 29 29 29 28 28 27 26
34 34 34 34 34 34 35 35 36 36 36 36 36 36 36 36 36 36 36 36 37 37 37 37 37 37 37 38 38 38 38 38 38 38 38 37 37 37 37 38 39 40 40 39 39 39 39 38 38 37 36 35 34 33 32 32 31 31 31 31 31 31 31 31 31 31 31 32 31 31 31 30 29 29 28 28 28 28 28 28 28 28 27 27 26
32 31 31 31 31 32 32 32 32 32 33 33 33 33 33 33 33 33 33 33 33 33 34 34 34 34 34 35 35 35 35 35 36 36 36 35 35 35 36 37 37 38 38 39 39 39 38 37 37 36 35 34 33 32 32 31 31 31 31 31 31 31 31 31 30 31 31 31 31 31 31 30 29 28 28 28 28 28 28 28 27 27 27 26 26
29 29 29 29 29 29 29 29 29 29 29 29 30 30 30 30 30 30 30 30 30 30 31 31 32 32 32 32 32 32 32 33 33 33 33 33 33 33 34 36 37 37 38 38 38 37 37 37 36 35 34 33 33 32 32 31 31 31 31 31 31 31 31 31 31 31 31 31 31 31 31 30 29 28 28 28 28 28 27 27 27 27 26 26 26
27 27 27 27 27 26 26 26 26 26 26 26 26 26 26 27 27 27 27 27 28 28 28 29 29 29 30 30 30 30 30 30 30 30 31 31 32 33 34 35 36 37 37 37 37 37 36 36 35 35 34 33 33 32 32 31 31 31 31 31 32 32 31 31 31 32 32 32 32 32 31 30 29 28 28 28 28 28 27 27 26 26 26 26 26
25 25 25 24 24 24 23 23 23 23 23 23 23 24 24 23 24 24 24 25 25 26 26 26 27 27 27 27 27 27 27 27 28 28 29 30 31 32 33 34 35 35 36 36 36 36 35 35 35 34 34 33 33 32 32 32 32 31 31 32 32 32 32 32 32 32 33 33 32 32 32 31 30 29 28 28 28 28 27 27 26 26 26 26 25
23 23 22 22 21 21 21 21 21 21 21 21 21 21 21 21 21 22 22 23 23 23 24 24 24 24 25 25 25 25 25 26 26 27 28 29 30 31 32 33 33 34 34 35 35 35 35 35 34 34 34 33 33 33 32 32 32 32 32 33 33 33 33 33 33 33 33 33 33 33 32 32 30 30 29 29 29 28 28 27 27 26 26 26 25
Wind_Direction
247 247 247 252 257 257 254 254 254 255 259 262 264 265 266 267 268 269 271 272 273 275 277 278 278 279 280 281 281 282 282 282 282 283 286 290 293 294 295 295 295 294 292 290 289 288 287 286 284 282 281 279 277 275 274 273 272 272 271 270 269 269 269 269 270 269 269 269 268 268 268 267 265 263 262 263 264 263 262 260 258 254 251 250 250
244 246 247 250 253 253 251 251 253 256 260 262 264 265 265 266 266 267 269 272 274 276 277 278 279 279 279 278 278 277 277 277 277 279 283 287 289 291 293 293 293 292 291 290 289 288 287 286 285 284 282 280 277 275 274 273 272 272 271 270 270 270 270 271 272 272 271 271 270 270 269 268 266 263 261 260 260 261 260 260 259 257 255 253 252
247 249 250 247 248 250 252 253 256 258 260 261 263 264 265 266 267 269 271 273 275 277 278 278 278 278 278 278 277 276 276 276 276 279 281 284 287 290 292 293 292 291 290 288 287 286 285 285 285 284 282 280 277 275 273 272 271 271 271 270 270 271 272 272 273 273 272 272 271 270 270 268 266 263 261 259 258 257 257 257 257 257 256 255 254
247 250 250 248 248 251 254 256 257 258 259 261 262 264 265 266 268 270 272 274 276 277 276 276 277 277 277 277 277 277 277 277 278 280 282 284 288 292 293 293 293 292 290 288 286 286 285 285 284 283 281 279 277 274 273 271 270 270 269 269 270 271 272 272 273 272 271 271 270 269 268 266 264 262 261 259 257 255 254 254 253 254 254 255 255
248 249 250 250 251 253 256 258 258 259 260 262 263 264 266 268 269 271 272 273 274 275 275 275 275 276 276 277 278 278 278 278 280 282 284 287 290 293 294 294 295 294 293 291 289 287 286 286 285 282 280 278 275 273 271 271 270 269 269 268 269 269 270 270 270 270 269 269 267 266 265 264 262 261 260 259 258 255 253 252 251 251 252 253 253
249 250 250 252 254 257 260 261 261 262 263 264 264 266 267 268 268 269 271 273 274 275 275 274 274 274 274 275 277 277 277 278 280 282 285 288 291 293 294 296 297 297 295 293 290 288 287 287 284 281 278 275 274 273 272 271 270 269 268 268 268 268 268 267 267 267 267 267 266 265 265 265 264 262 261 260 259 256 254 251 250 250 251 252 252
249 250 251 252 253 256 260 264 264 264 264 264 264 266 268 268 267 267 269 272 274 275 275 275 275 275 273 274 275 277 277 278 279 281 283 286 288 291 294 297 299 298 296 293 289 287 288 286 283 281 278 275 273 273 271 270 269 268 267 267 267 266 266 266 266 266 266 266 266 266 266 265 264 263 262 261 260 258 255 252 251 250 251 252 253
249 250 250 251 251 252 254 259 263 263 263 263 262 262 263 265 269 272 273 273 275 277 279 280 280 279 276 276 277 279 279 280 280 282 284 286 287 290 294 298 298 295 293 290 287 287 287 283 280 278 275 274 273 272 271 271 270 270 269 269 268 267 267 267 266 267 267 267 267 266 264 263 263 264 263 262 261 259 257 255 253 252 252 253 254
249 249 249 250 251 252 252 252 254 257 260 260 260 261 263 265 269 272 274 276 279 281 282 282 281 280 280 281 282 282 282 281 281 282 283 285 287 290 292 293 291 288 285 281 281 284 283 281 278 276 274 274 274 273 274 273 272 272 272 272 271 271 270 270 269 268 268 267 267 265 263 261 262 263 263 263 262 261 259 258 256 255 254 254 254
248 248 249 248 249 251 253 252 253 254 256 258 261 264 266 267 267 266 267 270 272 270 268 269 272 276 279 282 284 283 281 279 278 279 280 280 281 283 284 284 282 281 278 277 279 281 281 279 278 277 276 275 274 274 274 273 272 272 272 272 272 272 272 271 270 269 269 268 268 266 264 262 261 261 262 263 264 264 262 261 259 258 256 255 255
248 248 249 248 247 248 249 252 254 255 257 259 261 263 265 266 266 266 267 268 268 266 265 267 271 273 276 279 279 276 274 274 275 276 276 275 275 274 275 277 277 276 278 281 282 282 280 279 277 277 276 275 275 274 273 272 272 272 272 272 272 273 273 272 270 269 268 268 269 268 266 264 263 262 262 263 263 264 265 264 262 260 259 257 257
249 249 250 250 249 248 248 250 253 255 257 259 260 262 263 264 265 265 266 267 268 269 269 270 270 271 273 274 269 266 267 270 273 273 273 274 275 275 276 277 278 280 282 283 283 281 280 278 277 276 276 275 275 274 273 273 273 273 273 273 273 274 274 273 272 270 269 269 269 268 268 266 265 264 264 263 262 262 263 263 263 262 261 259 258
251 251 251 251 251 251 251 251 252 253 255 256 257 259 260 261 262 263 264 265 266 267 268 267 265 264 264 263 263 266 269 271 272 273 274 276 277 278 279 280 281 282 283 283 282 280 278 277 275 275 274 273 273 273 273 274 275 276 277 277 277 277 277 277 276 275 274 273 273 272 270 269 268 268 267 266 264 262 260 259 260 261 261 261 260
252 252 253 253 253 252 252 252 252 252 252 253 254 254 255 257 259 260 261 262 262 262 261 260 261 261 261 263 266 269 271 272 273 274 276 277 278 279 280 281 282 283 283 282 281 279 277 275 274 273 272 272 272 272 273 273 274 275 276 277 278 278 279 279 279 278 278 277 277 277 276 274 273 272 272 271 269 266 262 259 260 260 260 260 261
252 253 253 254 254 253 253 253 252 252 252 252 252 253 254 254 256 257 258 258 259 260 260 262 263 263 264 266 268 270 271 272 273 275 276 277 278 279 280 281 282 283 283 282 281 278 276 274 273 272 272 272 272 272 273 273 274 275 275 275 276 276 277 277 278 279 280 280 280 280 279 278 277 276 276 275 274 272 269 266 265 264 262 262 262
254 253 253 254 254 254 254 254 254 253 253 253 253 254 254 254 254 255 256 256 258 259 260 261 262 263 265 266 267 269 271 272 273 274 275 276 277 279 280 281 281 282 281 280 280 278 276 275 273 272 272 272 272 272 272 273 274 275 275 275 275 276 276 276 276 277 278 279 280 280 280 280 279 279 278 278 277 276 274 272 270 268 267 266 265
256 255 255 254 254 254 254 254 255 255 255 255 255 256 256 256 256 256 256 257 257 258 259 260 261 263 264 265 266 268 269 270 271 273 274 275 276 278 279 280 280 280 280 279 279 278 276 275 274 273 272 271 271 271 272 272 273 273 274 274 274 275 276 276 276 276 277 278 278 279 279 279 279 280 279 279 279 278 277 275 274 272 271 269 268
258 257 257 256 256 256 255 255 256 256 256 256 257 257 257 258 258 259 259 259 259 260 260 261 262 263 264 265 266 267 268 270 271 272 273 274 276 276 277 278 278 279 279 279 278 278 277 276 275 274 273 272 272 272 272 272 273 273 273 273 274 274 275 275 276 276 276 276 276 277 277 278 278 278 279 279 278 278 277 275 274 273 272 271 270
263 260 259 258 258 258 257 257 257 258 258 258 258 258 259 259 259 260 260 261 261 262 262 263 263 264 265 265 266 267 268 269 270 271 272 273 274 274 275 276 277 278 278 278 278 279 279 278 278 277 276 275 274 274 274 274 274 274 274 274 274 274 274 274 275 275 275 275 275 276 276 276 276 276 276 276 276 275 275 274 274 273 273 272 272
267 266 264 263 262 261 261 261 260 260 260 260 260 260 260 260 260 260 261 261 262 262 263 263 263 264 265 265 266 267 268 269 270 270 271 272 273 274 275 276 276 277 277 278 278 278 279 279 279 278 278 277 277 277 277 277 276 276 276 276 275 275 274 274 275 275 276 276 276 276 275 275 275 274 274 274 274 274 274 274 274 274 274 274 274
267 267 266 266 264 264 263 263 263 262 262 262 262 262 263 262 262 262 262 262 263 263 263 263 264 264 264 265 265 266 266 267 268 269 270 271 272 273 274 275 276 276 276 277 277 277 279 279 278 278 278 278 278 278 278 278 278 278 277 277 276 276 275 275 275 276 276 277 277 277 276 276 275 275 274 274 275 275 276 276 276 276 275 274 274
266 266 266 266 266 265 265 265 265 265 264 263 263 263 263 264 264 264 264 264 264 264 264 264 264 264 264 264 264 264 265 266 266 267 268 270 271 272 273 274 274 275 275 275 276 277 277 277 278 278 278 278 278 278 278 278 278 278 278 278 278 278 277 277 276 276 277 277 277 277 277 277 277 277 277 276 276 276 277 277 277 277 276 276 275
264 264 265 265 266 266 266 266 266 266 266 266 265 264 264 264 264 265 265 265 265 265 265 265 265 265 265 264 264 263 263 264 265 265 266 267 268 270 271 272 272 273 273 273 274 275 275 274 276 277 278 278 278 277 277 277 277 277 277 277 277 277 277 277 277 276 277 277 277 277 277 278 278 278 278 278 278 277 277 278 278 278 277 277 277
263 264 264 264 265 265 265 265 265 265 265 265 265 265 265 265 266 266 266 266 266 266 266 267 267 267 267 267 267 266 265 264 264 265 265 266 267 267 268 269 270 271 272 272 272 272 272 273 274 275 276 276 277 276 276 276 276 276 276 276 276 276 277 277 277 277 277 277 278 278 278 278 278 278 279 279 278 279 279 279 279 279 279 279 279
264 264 264 264 265 265 265 265 265 265 265 265 265 265 265 266 266 266 267 267 267 268 268 268 269 269 269 269 270 270 270 269 268 267 267 267 267 267 267 267 268 269 270 271 271 271 271 271 272 273 274 274 275 275 276 276 276 276 276 276 276 276 276 277 277 277 278 278 278 278 278 279 279 279 279 279 279 280 280 280 280 280 280 281 281
264 264 265 265 265 265 265 265 265 265 265 265 265 266 265 265 266 266 267 267 268 268 268 268 268 269 269 270 270 271 271 271 271 271 271 271 271 270 269 268 267 268 268 269 270 270 270 270 270 271 271 272 273 274 274 275 275 276 276 276 276 276 276 277 277 277 278 278 278 278 279 279 279 279 280 280 281 281 282 282 282 283 283 283 284
264 264 265 265 265 265 265 265 265 265 265 265 265 265 266 265 266 266 266 266 267 268 268 268 268 268 269 269 270 271 271 271 272 273 273 273 273 273 272 271 270 270 269 269 269 269 270 270 270 270 270 270 271 271 272 272 273 273 274 275 275 276 276 276 277 278 278 278 279 279 279 280 280 281 281 282 283 283 284 284 284 284 285 285 285
265 265 265 265 265 266 266 266 266 266 266 266 265 265 265 265 266 266 266 265 266 266 267 268 268 268 269 269 269 270 271 271 272 272 272 273 273 273 273 274 273 273 272 271 270 270 270 270 270 270 270 269 269 269 270 270 271 271 272 273 273 274 275 276 276 277 278 278 279 279 280 280 281 282 282 283 284 284 284 285 285 285 286 285 285
267 267 267 267 267 266 266 266 266 266 265 265 265 265 265 265 265 265 265 265 265 265 266 268 268 269 269 269 268 268 269 271 272 271 271 272 273 273 274 273 273 273 272 272 271 271 270 269 269 269 269 269 268 268 268 269 269 270 271 272 272 273 274 275 276 276 277 278 279 279 280 281 282 282 283 283 284 284 285 285 285 285 285 285 284
268 268 268 268 268 267 267 267 266 266 266 266 265 265 265 264 264 263 264 265 265 265 265 266 268 268 269 269 269 269 269 270 271 271 270 270 271 272 273 273 273 273 272 272 272 271 270 270 269 268 268 268 268 268 268 268 268 269 270 271 271 272 272 274 275 275 276 277 278 279 280 280 281 282 282 283 284 284 285 285 285 285 284 283 283
269 269 269 268 268 268 268 268 268 267 267 266 265 265 265 264 263 263 263 263 264 264 265 265 266 266 266 268 270 270 270 270 271 271 270 270 270 270 271 271 272 272 272 272 272 272 271 271 270 270 269 268 268 268 268 267 267 268 268 269 271 271 272 273 273 274 275 276 277 278 279 280 280 281 282 282 283 283 284 284 284 284 283 283 283
269 269 269 269 269 268 268 268 267 266 265 265 265 265 265 265 264 263 263 263 263 263 264 265 265 264 264 265 266 268 269 269 270 270 271 271 270 270 270 270 270 271 271 271 271 271 272 272 272 271 270 269 268 268 267 267 268 268 268 269 270 271 271 272 273 273 274 275 276 277 278 279 279 280 281 282 282 282 283 283 282 282 282 282 283
269 269 268 268 268 267 267 266 266 265 264 264 264 263 264 264 264 263 263 263 263 262 262 263 264 264 264 264 265 265 266 266 267 268 269 269 270 270 269 269 268 268 268 269 270 270 271 271 271 271 271 270 269 268 268 268 268 268 269 269 269 270 271 271 272 272 273 274 275 276 277 277 278 279 280 280 281 281 281 281 280 280 281 281 281
269 268 267 266 266 266 266 265 265 265 265 264 264 263 263 263 263 262 261 260 261 261 260 261 262 263 263 264 264 264 264 264 265 266 267 267 267 267 267 267 266 266 266 267 269 269 270 270 270 269 269 270 270 270 269 270 270 269 269 268 268 269 269 270 270 271 272 273 274 275 276 276 277 278 279 279 280 280 280 279 279 280 280 280 279
269 268 267 266 265 265 265 265 265 265 266 266 266 265 264 264 264 264 262 259 259 260 260 259 259 260 261 261 262 263 263 264 265 266 266 266 266 266 266 265 265 265 266 267 268 269 269 270 270 270 270 270 270 270 270 270 270 270 269 269 269 269 269 270 270 271 272 272 273 274 275 276 277 278 278 279 279 279 279 278 279 279 279 278 278
269 268 267 266 265 265 264 264 265 266 267 268 267 267 266 266 266 265 264 261 259 259 260 259 258 257 258 259 261 262 263 264 264 265 265 266 266 266 265 265 265 265 266 267 268 268 269 269 269 270 269 269 270 270 270 269 269 269 270 270 270 270 270 270 271 271 272 272 273 273 274 275 276 277 277 277 278 278 277 277 278 278 277 277 278
268 268 267 267 266 266 265 266 266 267 267 267 267 266 266 266 266 265 264 262 260 258 259 259 259 258 258 258 259 261 263 263 263 263 264 265 266 265 265 265 266 266 267 268 268 268 268 268 268 268 268 269 269 269 268 268 268 269 269 269 269 269 269 270 270 270 271 271 272 272 273 274 274 275 275 276 276 276 276 276 277 276 276 277 278
267 267 266 266 266 266 266 267 267 267 266 266 266 266 266 265 265 264 264 263 262 261 259 259 259 259 259 258 259 260 261 261 261 262 262 264 264 264 264 265 265 266 267 268 267 267 267 267 267 267 268 268 268 267 268 267 267 267 266 266 266 267 268 268 269 269 269 270 270 271 272 272 272 273 274 274 274 274 275 275 275 275 276 277 277
266 266 266 265 265 265 266 266 266 266 265 265 265 265 265 264 264 265 265 265 264 263 262 260 259 258 258 259 259 258 258 258 260 261 262 262 262 262 263 264 265 266 266 266 266 266 266 266 266 267 267 267 267 267 266 266 265 264 264 265 265 265 266 266 267 267 267 267 268 269 269 270 270 271 271 272 272 273 274 274 274 274 275 276 276
266 266 266 265 265 264 264 265 265 265 264 264 264 264 264 264 264 263 263 264 263 262 261 260 259 258 257 257 257 258 258 257 258 259 259 260 260 261 262 263 265 265 265 265 264 264 264 265 265 265 266 266 266 265 264 264 263 263 263 263 263 264 264 264 264 264 265 265 266 266 267 267 268 269 269 270 270 271 272 273 274 274 275 276 276
267 267 266 266 265 265 265 265 265 265 265 264 264 263 263 263 262 261 261 261 261 261 260 259 259 258 257 255 255 257 259 259 257 257 258 259 259 259 260 261 262 263 263 263 263 263 263 264 264 264 264 264 264 263 263 262 262 262 261 261 261 261 262 262 262 262 263 263 264 264 264 265 266 267 267 268 269 270 271 272 273 274 275 275 275
267 267 266 265 264 264 264 264 264 265 264 264 263 263 263 262 262 261 260 259 259 260 260 260 259 258 258 257 256 258 259 260 258 256 256 257 258 258 259 260 260 261 260 260 260 261 261 262 262 262 262 262 261 261 261 260 260 260 260 259 259 259 260 260 260 261 261 261 261 262 262 263 264 264 265 266 268 269 270 271 272 273 274 274 274
268 267 266 265 264 264 263 263 263 263 263 263 263 263 263 262 261 260 260 259 259 259 259 259 260 260 260 259 259 259 259 259 259 257 256 257 257 257 257 257 258 258 257 257 257 257 258 259 260 260 260 259 259 259 259 259 258 258 258 258 258 258 258 258 258 259 259 259 259 260 260 261 261 262 264 265 267 268 269 270 271 272 273 273 273
270 269 268 267 266 265 264 264 263 263 263 263 263 262 261 261 260 260 259 258 258 258 258 258 259 259 259 259 259 259 258 258 258 257 256 255 254 254 253 254 253 253 252 252 253 254 255 257 257 257 257 258 258 258 258 258 257 257 257 257 256 256 256 257 257 257 256 257 257 258 258 259 260 261 262 263 265 267 268 269 270 271 271 271 270
272 270 269 268 267 266 265 265 264 264 263 263 262 261 261 260 260 259 258 257 257 256 256 257 257 257 257 257 257 257 257 257 256 255 254 253 251 250 249 248 248 247 248 249 251 252 253 254 254 255 256 256 257 257 257 257 257 256 256 255 255 255 255 255 255 255 255 255 256 257 257 258 259 260 261 262 263 265 266 268 269 269 269 268 267
273 272 270 269 268 267 266 265 264 263 263 262 262 261 260 260 259 258 257 256 256 255 254 254 254 254 254 255 255 254 254 254 254 253 252 251 249 248 246 245 245 246 247 248 249 250 250 251 252 253 254 255 255 256 256 256 256 256 255 254 254 254 254 253 253 253 254 254 255 256 257 257 258 259 259 260 261 262 264 266 267 267 267 266 265
273 272 271 270 268 267 266 265 264 263 262 261 261 260 260 259 258 257 256 255 254 253 253 252 252 251 251 251 251 251 251 251 251 251 250 249 247 245 244 244 244 245 245 246 247 248 249 250 251 252 253 253 254 255 255 255 255 255 254 254 253 253 253 253 252 252 253 253 254 255 256 257 258 258 258 259 260 261 262 263 264 264 264 263 263
270 270 269 269 268 266 265 264 263 262 261 261 260 259 258 257 256 255 254 253 252 251 250 249 249 248 248 247 248 248 248 249 249 249 248 247 245 244 242 242 242 242 243 244 245 247 248 249 250 251 252 252 253 253 253 253 253 253 253 253 253 253 252 252 252 252 252 253 254 255 255 256 257 258 258 259 260 260 261 261 261 261 261 261 260
268 267 267 266 265 264 263 262 261 260 260 259 259 258 257 256 254 252 251 250 249 248 247 246 246 245 245 245 245 246 246 247 247 247 246 244 242 241 240 240 240 241 242 243 244 245 246 247 249 249 250 251 251 252 252 252 252 252 252 252 252 252 252 251 251 251 252 252 253 254 255 256 256 257 258 259 260 260 260 260 259 259 259 259 258
267 265 264 263 263 262 260 259 258 257 256 256 255 254 253 252 251 249 248 247 245 244 243 243 242 242 242 242 242 243 243 243 244 244 243 242 240 239 239 239 240 241 242 243 244 245 246 247 248 249 249 250 250 251 251 251 251 251 250 251 251 251 251 250 250 251 251 252 253 253 254 255 256 257 258 259 259 260 260 260 260 259 258 258 257
267 265 263 262 261 261 260 258 257 255 254 253 253 252 250 248 247 246 245 244 243 242 240 240 239 239 239 239 239 240 240 241 241 241 241 241 240 239 239 239 239 240 241 242 243 244 245 246 247 247 248 249 249 250 250 250 250 250 250 250 250 250 250 250 250 250 251 252 252 253 254 255 256 257 257 258 258 258 258 258 259 259 259 258 257
Height
10573 10575 10576 10576 10577 10577 10577 10578 10578 10578 10578 10579 10580 10581 10582 10582 10582 10583 10583 10583 10583 10583 10583 10583 10583 10584 10584 10584 10584 10585 10585 10585 10585 10585 10585 10585 10585 10585 10585 10584 10584 10584 10584 10584 10584 10584 10583 10584 10584 10584 10584 10584 10583 10583 10583 10583 10583 10582 10582 10582 10582 10582 10583 10583 10583 10583 10583 10583 10584 10584 10584 10584 10584 10583 10583 10583 10583 10583 10583 10583 10583 10583 10584 10584 10585
10569 10570 10571 10572 10571 10571 10572 10574 10574 10574 10575 10575 10576 10577 10577 10577 10578 10578 10579 10579 10579 10578 10578 10578 10578 10579 10579 10579 10580 10581 10581 10581 10581 10581 10581 10581 10581 10581 10581 10580 10580 10579 10579 10578 10578 10577 10577 10576 10576 10575 10576 10575 10575 10575 10575 10575 10575 10574 10574 10574 10574 10574 10575 10575 10576 10576 10576 10576 10576 10577 10577 10577 10577 10576 10576 10576 10576 10577 10577 10577 10577 10577 10578 10578 10578
10565 10566 10567 10568 10566 10566 10567 10568 10570 10571 10571 10570 10571 10571 10571 10572 10573 10573 10574 10574 10574 10574 10574 10574 10573 10573 10573 10574 10574 10575 10576 10576 10575 10576 10575 10575 10576 10576 10576 10576 10576 10575 10574 10574 10573 10572 10571 10569 10569 10568 10567 10567 10567 10567 10566 10566 10566 10566 10566 10566 10566 10566 10567 10567 10568 10568 10568 10569 10569 10569 10569 10569 10569 10569 10569 10569 10569 10569 10570 10570 10571 10571 10571 10572 10571
10559 10561 10562 10563 10562 10561 10561 10562 10566 10568 10566 10565 10565 10564 10565 10567 10568 10569 10569 10570 10570 10569 10569 10569 10568 10568 10568 10568 10568 10569 10570 10571 10570 10569 10568 10569 10570 10570 10570 10570 10569 10569 10569 10568 10567 10566 10564 10563 10562 10561 10560 10559 10559 10558 10558 10558 10558 10558 10558 10558 10557 10558 10559 10559 10559 10560 10560 10560 10560 10560 10561 10560 10560 10560 10560 10560 10561 10561 10562 10562 10563 10564 10564 10565 10565
10553 10555 10556 10557 10557 10556 10556 10558 10562 10563 10561 10560 10560 10559 10561 10562 10563 10564 10564 10564 10564 10563 10563 10563 10562 10562 10561 10561 10561 10563 10564 10565 10564 10561 10560 10561 10563 10563 10564 10564 10563 10562 10562 10562 10560 10558 10557 10557 10556 10554 10553 10552 10550 10550 10550 10550 10550 10550 10550 10550 10550 10550 10551 10552 10551 10551 10551 10551 10552 10552 10552 10552 10551 10552 10552 10552 10552 10553 10553 10554 10555 10556 10556 10556 10557
10546 10548 10550 10552 10553 10553 10553 10554 10555 10556 10555 10556 10557 10556 10555 10556 10557 10558 10559 10558 10558 10557 10557 10557 10556 10555 10555 10555 10556 10556 10557 10559 10558 10555 10554 10556 10556 10555 10556 10557 10556 10555 10554 10553 10552 10550 10549 10550 10549 10547 10546 10544 10543 10543 10543 10542 10542 10542 10542 10542 10542 10543 10543 10543 10543 10543 10543 10543 10543 10544 10545 10544 10544 10545 10544 10543 10544 10544 10545 10545 10546 10548 10548 10548 10549
10540 10542 10544 10547 10550 10551 10550 10549 10549 10550 10550 10551 10553 10552 10548 10548 10551 10553 10554 10553 10552 10552 10551 10550 10549 10549 10548 10549 10550 10550 10551 10552 10551 10548 10549 10551 10551 10550 10551 10551 10550 10549 10546 10544 10543 10542 10542 10542 10541 10539 10538 10537 10537 10537 10536 10535 10535 10535 10534 10534 10535 10535 10535 10535 10536 10535 10535 10535 10535 10537 10539 10537 10537 10538 10536 10535 10536 10536 10536 10536 10537 10539 10540 10540 10541
10534 10536 10538 10540 10543 10546 10547 10548 10545 10542 10542 10544 10546 10544 10541 10542 10546 10549 10547 10547 10547 10545 10544 10542 10540 10539 10540 10542 10544 10544 10544 10543 10541 10539 10539 10541 10542 10543 10546 10547 10546 10545 10542 10537 10534 10535 10535 10534 10535 10533 10530 10529 10530 10530 10529 10528 10528 10528 10528 10528 10528 10528 10528 10528 10529 10528 10528 10528 10528 10530 10531 10529 10529 10529 10528 10528 10528 10529 10529 10529 10529 10531 10532 10532 10532
10526 10529 10531 10533 10536 10538 10540 10542 10538 10535 10536 10537 10537 10537 10536 10538 10544 10545 10541 10541 10541 10538 10537 10536 10532 10529 10531 10535 10536 10536 10536 10534 10532 10531 10531 10533 10535 10536 10538 10541 10542 10542 10538 10531 10529 10529 10528 10528 10528 10527 10524 10523 10524 10524 10523 10523 10523 10522 10522 10522 10522 10522 10522 10522 10522 10522 10521 10521 10522 10523 10523 10522 10523 10522 10520 10520 10521 10521 10522 10522 10522 10523 10523 10524 10524
10518 10521 10523 10526 10530 10531 10531 10530 10529 10528 10530 10530 10529 10529 10529 10532 10538 10538 10536 10536 10535 10532 10532 10532 10527 10524 10527 10530 10531 10529 10528 10523 10522 10523 10524 10526 10530 10532 10532 10533 10536 10536 10530 10524 10524 10524 10522 10520 10520 10518 10517 10517 10517 10517 10517 10516 10516 10516 10516 10515 10515 10515 10516 10515 10515 10515 10514 10514 10514 10516 10516 10516 10516 10515 10513 10513 10513 10513 10513 10514 10514 10514 10514 10515 10515
10509 10511 10513 10517 10521 10523 10522 10521 10520 10521 10524 10524 10524 10522 10523 10526 10528 10527 10527 10527 10527 10526 10526 10525 10522 10520 10522 10526 10526 10521 10517 10513 10512 10514 10515 10517 10522 10525 10525 10525 10526 10526 10521 10517 10516 10515 10513 10512 10511 10510 10509 10509 10509 10509 10509 10509 10509 10508 10509 10508 10507 10507 10507 10508 10508 10508 10507 10506 10507 10508 10508 10508 10509 10508 10507 10507 10506 10506 10505 10505 10505 10505 10505 10506 10506
10501 10502 10505 10507 10510 10512 10513 10513 10513 10514 10516 10519 10519 10517 10518 10519 10518 10517 10518 10518 10518 10518 10518 10517 10515 10514 10514 10517 10515 10510 10506 10504 10505 10505 10504 10506 10509 10512 10514 10514 10515 10515 10512 10508 10506 10505 10503 10502 10501 10500 10500 10499 10499 10499 10499 10499 10500 10500 10500 10500 10500 10499 10499 10499 10499 10499 10499 10499 10499 10500 10501 10500 10500 10500 10499 10499 10499 10499 10498 10496 10496 10496 10496 10496 10497
10493 10494 10496 10498 10500 10502 10503 10504 10505 10506 10507 10510 10512 10511 10510 10511 10509 10509 10510 10510 10509 10510 10509 10508 10507 10507 10506 10505 10501 10498 10497 10497 10497 10496 10495 10495 10497 10499 10500 10501 10501 10501 10500 10498 10496 10495 10493 10493 10492 10491 10490 10490 10489 10488 10489 10489 10489 10490 10490 10490 10490 10489 10489 10489 10489 10490 10490 10490 10490 10491 10492 10491 10491 10491 10490 10489 10490 10490 10489 10488 10487 10487 10487 10487 10487
10486 10486 10486 10487 10490 10492 10493 10494 10494 10495 10496 10498 10500 10501 10501 10502 10502 10501 10501 10500 10500 10500 10500 10499 10499 10499 10498 10494 10491 10490 10490 10489 10489 10488 10486 10486 10486 10487 10487 10488 10488 10488 10487 10486 10485 10484 10484 10483 10482 10481 10481 10481 10480 10479 10479 10480 10480 10481 10482 10482 10481 10480 10480 10479 10479 10479 10480 10480 10480 10481 10481 10480 10481 10481 10479 10479 10479 10479 10479 10478 10478 10477 10478 10477 10477
10477 10478 10477 10477 10480 10481 10481 10481 10481 10483 10483 10484 10486 10488 10490 10492 10493 10492 10491 10490 10490 10490 10490 10489 10489 10490 10489 10486 10484 10483 10482 10481 10480 10479 10477 10477 10476 10475 10475 10475 10475 10475 10474 10474 10474 10473 10473 10473 10473 10472 10472 10471 10471 10470 10470 10471 10471 10473 10474 10474 10473 10472 10471 10471 10469 10469 10469 10469 10470 10470 10469 10469 10470 10470 10469 10468 10468 10468 10468 10468 10467 10467 10468 10468 10467
10466 10467 10467 10468 10468 10469 10470 10469 10470 10471 10472 10473 10475 10476 10477 10479 10480 10480 10480 10480 10479 10479 10479 10478 10478 10478 10478 10478 10476 10474 10473 10472 10471 10469 10468 10466 10465 10464 10463 10463 10463 10463 10462 10463 10462 10462 10462 10462 10462 10463 10463 10462 10461 10461 10461 10461 10462 10463 10464 10464 10464 10463 10462 10461 10460 10459 10459 10459 10459 10459 10459 10458 10459 10459 10458 10457 10457 10457 10457 10457 10456 10456 10457 10458 10457
10454 10455 10456 10456 10457 10457 10458 10458 10458 10459 10461 10462 10464 10465 10464 10466 10468 10468 10468 10468 10469 10469 10468 10468 10468 10467 10466 10467 10466 10464 10464 10463 10461 10460 10458 10456 10455 10454 10452 10453 10453 10452 10451 10451 10451 10451 10451 10452 10452 10453 10453 10452 10452 10452 10451 10451 10452 10453 10454 10455 10454 10454 10453 10450 10450 10451 10450 10449 10449 10449 10448 10448 10448 10448 10447 10447 10446 10446 10446 10447 10446 10445 10446 10447 10447
10442 10443 10444 10444 10445 10445 10445 10446 10447 10448 10449 10450 10452 10453 10452 10453 10455 10456 10456 10456 10457 10458 10458 10458 10457 10456 10455 10455 10454 10454 10453 10451 10451 10449 10448 10447 10446 10443 10443 10443 10442 10441 10441 10441 10441 10441 10441 10441 10441 10442 10443 10442 10443 10443 10442 10441 10442 10443 10444 10444 10445 10446 10444 10439 10439 10441 10441 10439 10439 10439 10438 10439 10438 10437 10437 10437 10436 10436 10436 10436 10436 10435 10436 10437 10436
10430 10432 10432 10433 10433 10433 10433 10435 10436 10436 10436 10438 10440 10440 10440 10441 10442 10443 10443 10444 10444 10445 10445 10446 10445 10444 10443 10442 10442 10443 10441 10439 10439 10439 10438 10437 10436 10433 10433 10433 10434 10432 10430 10431 10432 10431 10431 10431 10431 10431 10432 10432 10433 10433 10432 10432 10432 10433 10433 10433 10435 10437 10435 10431 10429 10431 10430 10430 10430 10430 10429 10429 10429 10428 10428 10428 10427 10426 10427 10427 10426 10426 10426 10426 10426
10417 10419 10420 10421 10422 10422 10422 10422 10424 10425 10424 10426 10428 10428 10427 10428 10429 10430 10430 10431 10431 10432 10432 10432 10433 10432 10431 10430 10431 10431 10430 10428 10428 10428 10427 10426 10425 10424 10423 10423 10425 10423 10421 10421 10423 10423 10423 10422 10421 10421 10422 10422 10423 10423 10423 10423 10423 10422 10422 10422 10423 10425 10425 10423 10421 10421 10420 10420 10420 10420 10420 10420 10420 10420 10420 10419 10418 10417 10418 10417 10417 10417 10417 10417 10416
10406 10407 10408 10409 10410 10411 10411 10410 10412 10413 10412 10414 10416 10416 10415 10415 10416 10418 10418 10418 10418 10419 10419 10419 10420 10421 10420 10418 10419 10419 10419 10418 10418 10418 10417 10415 10414 10414 10413 10413 10414 10414 10412 10412 10412 10416 10418 10414 10409 10411 10414 10413 10414 10414 10414 10414 10413 10413 10412 10412 10413 10414 10414 10415 10414 10412 10412 10412 10411 10411 10411 10411 10412 10412 10411 10411 10411 10409 10408 10408 10407 10407 10407 10408 10407
10397 10397 10398 10397 10397 10398 10399 10399 10400 10400 10400 10403 10405 10405 10404 10404 10404 10405 10405 10405 10406 10407 10406 10407 10408 10408 10407 10406 10406 10408 10408 10408 10408 10407 10407 10406 10405 10404 10403 10404 10404 10403 10404 10403 10402 10407 10412 10406 10399 10401 10404 10405 10405 10406 10405 10405 10405 10404 10403 10403 10403 10404 10404 10405 10405 10404 10404 10404 10403 10403 10403 10402 10403 10403 10402 10403 10402 10402 10401 10400 10399 10398 10397 10397 10397
10387 10387 10387 10386 10386 10387 10387 10387 10388 10388 10388 10390 10392 10394 10393 10393 10393 10393 10392 10393 10394 10394 10394 10393 10394 10394 10393 10392 10393 10395 10396 10396 10396 10397 10397 10397 10397 10396 10394 10394 10394 10393 10394 10395 10394 10398 10401 10397 10393 10393 10393 10394 10396 10396 10396 10396 10396 10395 10395 10395 10394 10395 10395 10395 10396 10396 10396 10396 10395 10395 10395 10395 10395 10394 10394 10394 10393 10393 10393 10393 10391 10389 10388 10387 10386
10376 10376 10375 10375 10375 10375 10375 10374 10375 10376 10376 10377 10379 10380 10381 10381 10381 10380 10380 10380 10382 10381 10381 10380 10380 10380 10380 10379 10378 10380 10382 10383 10383 10384 10386 10387 10388 10388 10386 10385 10385 10384 10384 10384 10385 10388 10390 10388 10386 10386 10385 10385 10386 10385 10386 10386 10386 10386 10387 10386 10386 10386 10386 10386 10387 10386 10386 10387 10386 10385 10386 10386 10386 10385 10385 10385 10384 10384 10384 10383 10381 10379 10378 10377 10375
10365 10365 10364 10364 10363 10363 10363 10362 10363 10364 10364 10364 10365 10367 10368 10369 10369 10368 10367 10368 10368 10368 10368 10368 10367 10366 10366 10366 10365 10365 10366 10368 10370 10371 10373 10375 10377 10378 10378 10377 10376 10375 10375 10374 10374 10377 10380 10379 10378 10378 10377 10376 10376 10375 10375 10376 10376 10376 10377 10377 10377 10377 10377 10377 10377 10377 10377 10377 10376 10376 10376 10376 10376 10376 10375 10375 10375 10375 10375 10373 10371 10369 10368 10367 10365
10353 10353 10352 10352 10351 10351 10350 10350 10351 10352 10352 10352 10352 10353 10355 10356 10356 10356 10356 10356 10356 10354 10353 10354 10355 10354 10352 10352 10353 10353 10352 10353 10355 10358 10360 10362 10363 10364 10365 10367 10367 10367 10367 10366 10364 10364 10367 10369 10370 10369 10368 10367 10367 10366 10366 10365 10366 10366 10366 10367 10367 10367 10367 10367 10367 10367 10367 10367 10366 10366 10366 10366 10366 10365 10365 10365 10364 10364 10364 10362 10360 10358 10357 10356 10354
10341 10341 10340 10339 10339 10338 10338 10338 10338 10339 10339 10340 10340 10340 10341 10343 10343 10344 10344 10345 10345 10342 10338 10339 10341 10341 10340 10340 10341 10340 10339 10341 10343 10345 10346 10348 10349 10350 10351 10353 10355 10356 10356 10356 10355 10355 10356 10358 10359 10359 10359 10359 10358 10357 10357 10356 10356 10356 10357 10357 10357 10357 10357 10357 10357 10356 10357 10356 10356 10356 10356 10356 10356 10355 10355 10355 10354 10353 10352 10351 10349 10348 10346 10346 10344
10328 10328 10328 10327 10326 10326 10325 10325 10326 10326 10326 10327 10328 10328 10328 10329 10331 10331 10331 10332 10334 10330 10325 10325 10327 10328 10329 10330 10330 10327 10324 10326 10331 10334 10333 10332 10334 10337 10339 10341 10342 10345 10344 10343 10343 10345 10345 10347 10348 10348 10348 10348 10347 10348 10348 10347 10346 10346 10347 10347 10347 10347 10346 10347 10347 10347 10346 10346 10346 10346 10346 10346 10345 10345 10345 10344 10344 10343 10342 10340 10339 10338 10336 10335 10333
10314 10315 10315 10313 10313 10312 10311 10311 10312 10312 10313 10313 10314 10314 10314 10316 10319 10318 10315 10317 10320 10320 10316 10313 10314 10317 10318 10316 10316 10316 10313 10311 10317 10322 10321 10320 10320 10324 10327 10329 10330 10332 10332 10330 10330 10333 10334 10335 10337 10337 10337 10336 10336 10336 10338 10337 10336 10336 10336 10336 10337 10337 10336 10336 10337 10337 10336 10336 10336 10336 10336 10335 10335 10335 10335 10334 10333 10333 10332 10331 10330 10328 10327 10325 10323
10300 10301 10300 10299 10298 10297 10296 10297 10297 10298 10299 10299 10299 10299 10298 10300 10304 10305 10303 10304 10307 10308 10306 10304 10303 10307 10306 10298 10297 10304 10304 10300 10302 10307 10309 10310 10311 10312 10314 10316 10317 10318 10319 10318 10318 10320 10321 10323 10326 10326 10326 10325 10324 10325 10326 10326 10326 10327 10326 10325 10326 10326 10327 10327 10327 10327 10326 10326 10326 10326 10326 10326 10325 10325 10325 10324 10323 10323 10322 10321 10320 10319 10317 10315 10313
10286 10286 10286 10285 10284 10282 10282 10283 10283 10283 10283 10284 10284 10285 10283 10283 10287 10291 10291 10293 10294 10294 10293 10293 10294 10296 10295 10288 10284 10288 10290 10289 10289 10291 10294 10299 10301 10301 10303 10305 10305 10306 10306 10305 10305 10307 10308 10311 10314 10315 10314 10313 10313 10313 10313 10313 10315 10316 10316 10316 10315 10315 10317 10318 10318 10317 10317 10316 10316 10316 10316 10316 10316 10316 10315 10315 10314 10313 10313 10313 10312 10310 10307 10306 10306
10273 10273 10272 10271 10269 10268 10269 10269 10267 10267 10267 10269 10270 10271 10269 10268 10272 10277 10278 10279 10281 10282 10281 10279 10280 10282 10282 10280 10278 10277 10276 10276 10276 10276 10278 10283 10287 10289 10292 10294 10295 10294 10293 10291 10292 10295 10297 10299 10301 10302 10301 10300 10301 10301 10301 10301 10303 10304 10305 10307 10306 10305 10306 10308 10308 10307 10308 10307 10307 10307 10307 10307 10306 10306 10306 10306 10305 10304 10304 10304 10302 10300 10299 10299 10299
10259 10258 10257 10256 10255 10254 10254 10253 10250 10250 10253 10255 10257 10259 10258 10255 10257 10263 10266 10266 10266 10269 10269 10267 10266 10267 10268 10268 10268 10269 10267 10264 10264 10265 10267 10270 10273 10276 10280 10282 10283 10282 10280 10279 10280 10284 10286 10288 10289 10289 10288 10288 10288 10289 10289 10290 10293 10294 10295 10296 10296 10296 10297 10297 10297 10297 10298 10298 10298 10298 10298 10298 10298 10298 10297 10297 10296 10296 10296 10295 10293 10292 10292 10291 10291
10243 10243 10243 10242 10242 10241 10239 10237 10236 10237 10241 10243 10244 10246 10247 10245 10243 10247 10253 10255 10252 10252 10256 10257 10256 10255 10256 10255 10255 10256 10255 10253 10255 10257 10258 10259 10262 10265 10267 10269 10270 10269 10268 10268 10270 10273 10276 10277 10277 10277 10277 10276 10277 10278 10278 10280 10282 10283 10283 10284 10286 10287 10287 10287 10287 10288 10288 10289 10289 10289 10289 10289 10289 10289 10289 10288 10288 10288 10287 10286 10285 10285 10285 10284 10282
10229 10228 10228 10228 10228 10227 10225 10223 10224 10226 10228 10231 10233 10233 10233 10234 10232 10232 10238 10243 10242 10239 10240 10245 10246 10245 10244 10243 10242 10242 10242 10243 10246 10248 10247 10247 10250 10255 10257 10257 10257 10257 10258 10259 10261 10264 10266 10266 10265 10266 10266 10266 10267 10268 10269 10270 10271 10271 10272 10274 10275 10277 10277 10277 10278 10278 10279 10280 10280 10280 10281 10281 10281 10281 10280 10280 10280 10280 10279 10278 10278 10278 10277 10276 10275
10215 10215 10215 10215 10215 10214 10212 10212 10213 10217 10219 10220 10221 10220 10220 10221 10222 10222 10224 10228 10230 10228 10227 10229 10232 10233 10234 10233 10231 10230 10232 10235 10237 10238 10237 10237 10240 10244 10246 10246 10247 10248 10249 10251 10253 10255 10256 10256 10255 10256 10256 10256 10258 10258 10259 10260 10261 10262 10263 10265 10266 10267 10267 10268 10269 10270 10270 10271 10272 10272 10272 10273 10272 10273 10272 10272 10272 10272 10271 10271 10271 10271 10270 10269 10269
10204 10203 10203 10203 10203 10202 10201 10202 10204 10208 10210 10209 10207 10207 10209 10210 10211 10212 10212 10213 10216 10218 10218 10217 10218 10221 10223 10224 10223 10221 10223 10225 10227 10228 10229 10229 10231 10234 10236 10237 10238 10239 10241 10243 10244 10245 10246 10246 10246 10246 10246 10248 10249 10249 10250 10251 10252 10254 10255 10256 10256 10257 10258 10259 10260 10261 10262 10263 10263 10264 10264 10265 10265 10265 10265 10265 10265 10264 10264 10264 10265 10264 10263 10263 10263
10194 10193 10193 10193 10193 10192 10191 10193 10195 10196 10197 10196 10195 10196 10198 10200 10200 10201 10201 10202 10204 10207 10208 10208 10210 10211 10212 10214 10215 10215 10214 10215 10216 10219 10221 10222 10223 10225 10227 10228 10230 10232 10234 10235 10236 10236 10237 10237 10237 10237 10239 10240 10241 10241 10242 10244 10245 10246 10246 10247 10248 10249 10250 10251 10252 10254 10254 10255 10256 10256 10257 10258 10258 10258 10259 10259 10259 10258 10258 10258 10258 10258 10258 10258 10258
10184 10184 10184 10184 10183 10183 10183 10183 10185 10185 10185 10185 10185 10186 10188 10190 10190 10191 10191 10192 10194 10196 10197 10199 10201 10201 10203 10206 10206 10203 10203 10206 10208 10211 10213 10214 10214 10217 10219 10220 10222 10225 10226 10226 10227 10228 10229 10229 10229 10231 10232 10232 10233 10234 10235 10236 10237 10238 10239 10240 10241 10242 10243 10244 10245 10246 10247 10248 10249 10250 10250 10251 10251 10252 10252 10252 10252 10252 10252 10252 10252 10252 10253 10253 10252
10175 10175 10175 10175 10174 10175 10174 10174 10175 10175 10175 10176 10176 10177 10179 10181 10182 10182 10183 10183 10184 10185 10187 10188 10189 10191 10194 10197 10194 10189 10191 10199 10203 10203 10204 10205 10207 10210 10211 10213 10215 10217 10218 10218 10220 10221 10221 10221 10223 10224 10225 10226 10227 10227 10228 10229 10230 10231 10232 10233 10234 10235 10236 10237 10239 10240 10241 10241 10242 10243 10244 10245 10245 10246 10246 10246 10246 10247 10247 10246 10246 10247 10247 10247 10247
10167 10167 10167 10166 10166 10166 10166 10166 10166 10167 10167 10168 10168 10169 10170 10171 10172 10173 10174 10174 10175 10175 10176 10178 10180 10181 10184 10186 10185 10182 10183 10190 10195 10196 10196 10198 10200 10202 10204 10205 10207 10209 10210 10211 10212 10213 10213 10215 10216 10217 10218 10219 10220 10221 10222 10223 10224 10225 10226 10227 10228 10229 10230 10231 10232 10233 10234 10235 10236 10237 10238 10239 10240 10240 10241 10241 10241 10241 10241 10241 10241 10242 10242 10242 10242
10159 10159 10158 10158 10158 10158 10158 10158 10158 10158 10159 10159 10160 10161 10162 10163 10164 10165 10165 10166 10166 10167 10168 10169 10171 10172 10173 10176 10177 10177 10178 10181 10185 10187 10189 10190 10192 10195 10197 10198 10200 10202 10203 10204 10205 10206 10207 10208 10209 10211 10212 10213 10214 10215 10216 10217 10218 10219 10220 10221 10222 10223 10224 10225 10227 10228 10229 10230 10231 10232 10233 10234 10235 10235 10235 10235 10236 10236 10236 10237 10237 10237 10237 10238 10237
10152 10151 10151 10150 10150 10150 10150 10150 10150 10151 10151 10152 10152 10153 10154 10155 10155 10156 10157 10158 10159 10159 10160 10161 10162 10164 10166 10168 10170 10171 10172 10174 10176 10179 10182 10184 10186 10188 10190 10191 10193 10195 10196 10197 10198 10199 10200 10202 10203 10205 10206 10206 10208 10209 10211 10212 10213 10214 10215 10216 10217 10218 10219 10220 10221 10222 10223 10224 10225 10226 10227 10229 10229 10230 10230 10231 10231 10231 10232 10232 10232 10233 10233 10233 10233
10144 10144 10144 10144 10143 10143 10143 10143 10144 10144 10144 10145 10145 10146 10146 10147 10148 10148 10149 10150 10151 10152 10153 10154 10156 10157 10159 10161 10162 10164 10166 10167 10169 10172 10175 10176 10178 10180 10182 10184 10186 10187 10188 10190 10191 10193 10194 10196 10197 10198 10199 10201 10202 10204 10205 10206 10207 10208 10209 10211 10211 10212 10213 10215 10216 10217 10218 10219 10220 10221 10222 10223 10224 10225 10226 10226 10226 10227 10227 10227 10228 10228 10228 10228 10228
10138 10138 10138 10137 10137 10137 10137 10137 10137 10138 10138 10139 10139 10139 10139 10140 10141 10142 10142 10143 10144 10145 10146 10148 10149 10151 10152 10154 10155 10157 10159 10161 10163 10165 10167 10169 10171 10173 10175 10177 10178 10180 10181 10183 10185 10187 10188 10189 10191 10192 10194 10195 10197 10198 10199 10201 10202 10203 10204 10205 10206 10207 10208 10210 10211 10212 10213 10214 10215 10216 10217 10218 10220 10221 10221 10222 10222 10223 10223 10223 10223 10224 10224 10224 10224
10133 10132 10132 10132 10131 10131 10131 10131 10131 10132 10132 10133 10133 10133 10134 10134 10135 10136 10136 10137 10138 10139 10140 10141 10143 10144 10146 10147 10149 10151 10153 10155 10156 10158 10160 10162 10164 10166 10168 10170 10172 10174 10176 10178 10180 10181 10182 10184 10185 10187 10188 10190 10192 10193 10194 10196 10197 10198 10199 10200 10201 10202 10204 10205 10206 10207 10208 10209 10210 10211 10212 10214 10215 10216 10217 10218 10218 10218 10219 10219 10219 10219 10220 10220 10220
10128 10127 10127 10127 10126 10126 10126 10126 10126 10126 10127 10127 10128 10128 10128 10129 10129 10130 10131 10132 10133 10134 10135 10136 10137 10139 10140 10142 10143 10145 10147 10149 10150 10152 10154 10156 10158 10160 10162 10164 10166 10168 10170 10172 10173 10175 10177 10179 10180 10182 10183 10185 10187 10188 10189 10190 10192 10193 10194 10195 10196 10198 10199 10200 10201 10202 10203 10204 10205 10207 10208 10209 10210 10212 10213 10213 10214 10214 10215 10215 10215 10215 10215 10215 10216
10124 10123 10123 10122 10122 10122 10122 10122 10122 10122 10122 10123 10123 10123 10124 10124 10125 10125 10126 10127 10128 10129 10130 10131 10132 10133 10135 10136 10138 10140 10142 10144 10145 10147 10149 10151 10153 10155 10157 10159 10161 10163 10165 10166 10168 10170 10172 10174 10175 10177 10179 10180 10182 10183 10184 10186 10187 10188 10189 10190 10192 10193 10194 10196 10197 10198 10199 10200 10201 10202 10203 10205 10206 10207 10208 10209 10209 10210 10210 10211 10211 10211 10211 10211 10212
10120 10119 10119 10119 10118 10118 10118 10118 10118 10118 10119 10119 10119 10119 10120 10120 10121 10121 10122 10123 10124 10124 10125 10126 10127 10129 10130 10132 10134 10136 10137 10139 10141 10143 10144 10146 10148 10150 10151 10153 10155 10157 10159 10161 10163 10165 10167 10169 10170 10172 10174 10175 10177 10178 10180 10181 10182 10184 10185 10186 10187 10188 10190 10191 10192 10193 10194 10195 10196 10197 10199 10200 10201 10202 10203 10204 10204 10205 10206 10206 10207 10207 10207 10208 10208
10116 10115 10115 10115 10115 10115 10115 10115 10115 10115 10115 10115 10115 10116 10116 10117 10117 10118 10118 10119 10120 10121 10122 10122 10124 10125 10127 10128 10130 10132 10133 10135 10137 10138 10140 10142 10143 10145 10147 10149 10151 10153 10155 10157 10159 10161 10162 10164 10166 10168 10169 10171 10172 10174 10175 10176 10178 10179 10181 10182 10183 10184 10185 10187 10188 10189 10190 10191 10192 10193 10194 10195 10197 10198 10199 10199 10200 10200 10201 10201 10202 10203 10203 10204 10204
10112 10112 10112 10112 10111 10111 10111 10112 10112 10112 10112 10112 10112 10112 10113 10113 10114 10114 10115 10116 10116 10117 10118 10119 10120 10122 10123 10125 10126 10128 10129 10131 10133 10134 10136 10137 10139 10141 10143 10145 10146 10148 10150 10152 10154 10156 10158 10160 10161 10163 10165 10166 10168 10169 10171 10172 10174 10175 10176 10177 10178 10179 10181 10182 10183 10184 10185 10186 10187 10188 10189 10191 10192 10193 10194 10195 10195 10196 10196 10197 10198 10198 10199 10199 10200